Regional Weather Roundup
Issued by NWS

Home | Current Version | Previous Version | Graphics & Text | Print | Product List | Glossary On
Versions: 1 2 3 4 5 6 7 8 9 10 11 12 13 14 15 16 17 18 19 20 21 22 23 24 25 26 27 28 29 30 31 32 33 34 35 36 37 38 39 40 41 42 43 44 45 46 47 48 49 50
390
ASUS45 KTFX 110810
RWRMT
MONTANA REGIONAL WEATHER ROUNDUP
NATIONAL WEATHER SERVICE GREAT FALLS MT
100 AM MST THU FEB 11 2016

NOTE: "FAIR" INDICATES FEW OR NO CLOUDS BELOW 12000 FEET WITH NO
SIGNIFICANT WEATHER AND/OR OBSTRUCTIONS TO VISIBILITY.

MTZ001>007-043-110900-
WEST OF THE DIVIDE

CITY           SKY/WX    TMP DP  RH WIND       PRES   REMARKS
KALISPELL      MOCLDY    29  27  92 N6        30.19S FOG     WCI  23
MISSOULA       CLOUDY    34  31  88 CALM      30.25S
BUTTE          CLOUDY    28  20  71 CALM      30.21S
MULLAN PASS    CLOUDY    33  31  92 VRB6      30.24S WCI  28
ANACONDA         N/A     43  23  45 SE9       30.19F
DEER LODGE       N/A     37  27  65 W10       30.19F WCI  30
HAMILTON         N/A     46  28  49 S5        30.24S
LIBBY            N/A     32  28  86 CALM      30.24S
PLAINS           N/A     37  33  85 W3        30.21F
$$

MTZ008-052>055-110900-
SOUTHWEST MONTANA

CITY           SKY/WX    TMP DP  RH WIND       PRES   REMARKS
BOZEMAN        CLOUDY    33  29  85 CALM      30.18F
DILLON         CLOUDY    34  25  69 SW12      30.23F WCI  25
ENNIS          CLEAR     39  25  56 S18       30.27F WCI  30
THREE FORKS      N/A     32  32 100 CALM      30.14S
TWIN BRIDGES     N/A     37  24  60 E6        30.18F
$$

MTZ009-010-012-014-046-048-049-054-110900-
EAST SLOPES AND CENTRAL MONTANA

CITY           SKY/WX    TMP DP  RH WIND       PRES   REMARKS
CUT BANK       PTCLDY    41  28  60 W17       30.03R
GREAT FALLS    CLOUDY    47  28  47 SW14      30.03S
MALMSTROM AFB  CLOUDY    50  28  43 SW15      30.04R
HELENA         CLOUDY    33  27  78 E3        30.15F
CHOTEAU          N/A     52  28  40 W22       30.04S
CONRAD           N/A     47  32  56 W1        30.06S
$$

MTZ011-013-016-021-045-047-050-051-110900-
NORTH CENTRAL MONTANA

CITY           SKY/WX    TMP DP  RH WIND       PRES   REMARKS
HAVRE          MOCLDY    31  29  92 E3        29.97F
LEWISTOWN      CLOUDY    46  28  49 W18       30.00F
N BAR RANCH      N/A     48  25  40 NW15G23   29.99F
CHINOOK          N/A     32  30  93 E8        29.98F WCI  25
$$

MTZ017>020-022>027-061-062-110900-
NORTHEAST MONTANA

CITY           SKY/WX    TMP DP  RH WIND       PRES   REMARKS
GLASGOW        CLOUDY    30  25  81 E12       30.02F WCI  20
JORDAN           N/A     32  30  92 SE7       30.00F WCI  26
SIDNEY         CLOUDY    30  25  80 CALM      30.10F
WOLF POINT     LGT SNOW  32  26  78 E10       30.08F WCI  24
MALTA            N/A    N/A N/A N/A MISG      29.98
PLENTYWOOD       N/A     25  21  86 CALM      30.10F
POPLAR           N/A     27  25  93 E8        30.10S WCI  18
SCOBEY           N/A     25  18  74 N3        30.04F
$$

MTZ028>42-056>058-110900-
SOUTHCENTRAL AND SOUTHEAST MONTANA

CITY           SKY/WX    TMP DP  RH WIND       PRES   REMARKS
BAKER          CLOUDY    31  27  85 SE8       30.05F WCI  23
BILLINGS       CLOUDY    48  22  35 SW15      30.03F
LIVINGSTON     CLOUDY    49  21  33 SW24      30.13S
MILES CITY     MOCLDY    32  29  88 NE6       30.03F WCI  26
EKALAKA          N/A     30  26  85 E8        29.99F WCI  22
FORSYTH          N/A     34  32  93 NE5       30.00F
LAUREL           N/A     44  21  40 SW5       30.02F
ROUNDUP          N/A     41  24  51 CALM      29.90F
$$

REGIONAL REPORTS...DAKOTAS

CITY           SKY/WX    TMP DP  RH WIND       PRES   REMARKS
WILLISTON      CLOUDY    26  22  84 E3        30.11F
MINOT          CLOUDY    14   6  70 CALM      30.17S
DICKINSON      CLOUDY    25  22  88 SE6       30.06F WCI  18
BEACH          CLOUDY    28  28 100 S5        30.08F
CROSBY         CLOUDY    19  19 100 E5        30.15F
TIOGA          CLOUDY    18  18 100 S6        30.15F WCI   9
WATFORD CITY   CLOUDY    23  19  86 E6        30.11F WCI  16
BISMARCK       CLOUDY    18  11  74 SE5       30.19S
GRAND FORKS    CLOUDY     3  -3  76 CALM      30.29F
FARGO          CLOUDY     1  -3  83 NE3       30.28F
BUFFALO SD       N/A     32  29  88 S8        29.99F WCI  25
RAPID CITY     CLOUDY    28  26  92 S9        30.09F WCI  19
$$

REGIONAL REPORTS...WYOMING/IDAHO/WASHINGTON

CITY           SKY/WX    TMP DP  RH WIND       PRES   REMARKS
GILLETTE       CLEAR     41  25  53 W15       30.03F
SHERIDAN       CLOUDY    37  25  61 S6        30.03F
BUFFALO WY     CLOUDY    40  22  48 W5        30.05F
CODY           CLOUDY    54  16  22 N12G23    30.10F
YELLOWSTONE LA   N/A     22  18  85 CALM      30.34R
IDAHO FALLS    CLOUDY    16  13  88 CALM      30.41R
SALMON         CLOUDY    16  12  86 CALM      30.39R
BOISE          CLEAR     30  28  92 CALM      30.41F FOG
SPOKANE        CLOUDY    35  34  96 SE5       30.28F FOG
$$

REGIONAL REPORTS...ALBERTA

CITY           SKY/WX    TMP DP  RH WIND       PRES   REMARKS
EDMONTON       LGT SNOW  21  18  86 E8        30.05F VSB 3/4 WCI  12
CALGARY        FOG       30  30 100 SW5       29.97F VSB 3/8
LETHBRIDGE     CLEAR     46  30  53 W24G31    29.95F
MEDICINE HAT   LGT RAIN  32  30  93 N5        29.97S
WATERTON GATE    N/A     46  25  42 W17G25      N/A
CARDSTON         N/A     46  25  42 W15G21      N/A
MILK RIVER       N/A     39  30  70 W17         N/A  WCI  30
ONEFOUR          N/A     30  30 100 E7          N/A  WCI  23
$$

REGIONAL REPORTS...SASKATCHEWAN

CITY           SKY/WX    TMP DP  RH WIND       PRES   REMARKS
SWIFT CURRENT  LGT SNOW  21  21 100 E13G18    30.01F WCI   9
REGINA         CLOUDY    16  12  86 NE6       30.13F WCI   7
SASKATOON      CLOUDY    10   9  92 NE13      30.21F WCI  -5
CYPRESS HILLS    N/A     27  25  93 S6          N/A  WCI  20
VAL MARIE        N/A     28  27  93 SE10        N/A  WCI  19
ROCKGLEN         N/A     23  23 100 SE6         N/A  WCI  16
ASSINIBOIA       N/A     19  18  93 E8          N/A  WCI   9
$$




USA.gov is the U.S. government's official web portal to all federal, state and local government web resources and services.